When you browse on this site, cookies collect data to enhance your experience and personalize the content and advertising you see.
Visit our Privacy Policy to learn more. By continuing to use the site, you agree to this use of cookies and data.
  • în România
  • Lista ţărilor
  • Pe 7 zile
  • Temperatura apei
  • Hartă satelitară
  • Meteo pe hartă
  • Widget-uri
  • user-avatar
    Intrare

    Meteo pe oră la Caracas

    Astăzi, 23 Februarie, Sâmbătă

    Timp Temperatura Precipitaţii Vânt Presiune Umiditate
    00:00 +16°C° 0.2 mm 3 m/s 650 mmHg 94%
    01:00 +16°C° 0.2 mm 3 m/s 650 mmHg 95%
    02:00 +16°C° 0.2 mm 3 m/s 650 mmHg 95%
    03:00 +16°C° 0.3 mm 3 m/s 650 mmHg 95%
    04:00 +16°C° 0.3 mm 3 m/s 650 mmHg 95%
    05:00 +16°C° 0.3 mm 3 m/s 650 mmHg 95%
    06:00 +16°C° 0.2 mm 3 m/s 650 mmHg 94%
    07:00 +15°C° 0.2 mm 4 m/s 651 mmHg 92%
    08:00 +15°C° 0.2 mm 4 m/s 651 mmHg 91%
    09:00 +17°C° 0.1 mm 4 m/s 652 mmHg 86%
    10:00 +18°C° 0.1 mm 4 m/s 652 mmHg 81%
    11:00 +19°C° 0.1 mm 4 m/s 652 mmHg 75%
    12:00 +21°C° 0 mm 4 m/s 652 mmHg 68%
    13:00 +22°C° 0 mm 4 m/s 652 mmHg 61%
    14:00 +23°C° 0 mm 4 m/s 652 mmHg 54%
    15:00 +23°C° 0 mm 4 m/s 651 mmHg 58%
    16:00 +22°C° 0 mm 4 m/s 650 mmHg 62%
    17:00 +21°C° 0 mm 4 m/s 650 mmHg 66%
    18:00 +20°C° 0.1 mm 4 m/s 650 mmHg 75%
    19:00 +18°C° 0.1 mm 4 m/s 650 mmHg 84%
    20:00 +17°C° 0.1 mm 4 m/s 649 mmHg 93%
    21:00 +17°C° 0.2 mm 4 m/s 650 mmHg 93%
    22:00 +17°C° 0.2 mm 3 m/s 650 mmHg 94%
    23:00 +17°C° 0.2 mm 3 m/s 650 mmHg 94%

    Mâine, 24 Februarie, Duminică

    Timp Temperatura Precipitaţii Vânt Presiune Umiditate
    00:00 +17°C° 0.1 mm 3 m/s 650 mmHg 94%
    01:00 +17°C° 0.1 mm 3 m/s 650 mmHg 94%
    02:00 +16°C° 0.1 mm 3 m/s 650 mmHg 94%
    03:00 +16°C° 0.1 mm 3 m/s 650 mmHg 94%
    04:00 +16°C° 0.1 mm 3 m/s 650 mmHg 94%
    05:00 +16°C° 0.1 mm 3 m/s 649 mmHg 94%
    06:00 +16°C° 0.1 mm 3 m/s 650 mmHg 92%
    07:00 +16°C° 0.1 mm 3 m/s 650 mmHg 90%
    08:00 +16°C° 0.1 mm 3 m/s 650 mmHg 89%
    09:00 +17°C° 0.1 mm 3 m/s 651 mmHg 85%
    10:00 +18°C° 0.1 mm 3 m/s 652 mmHg 82%
    11:00 +19°C° 0.1 mm 3 m/s 652 mmHg 79%
    12:00 +20°C° 0.1 mm 4 m/s 652 mmHg 75%
    13:00 +21°C° 0.1 mm 4 m/s 651 mmHg 71%
    14:00 +22°C° 0.1 mm 4 m/s 651 mmHg 67%
    15:00 +21°C° 0.1 mm 4 m/s 650 mmHg 72%
    16:00 +20°C° 0.1 mm 4 m/s 649 mmHg 78%
    17:00 +19°C° 0.1 mm 4 m/s 648 mmHg 83%
    18:00 +18°C° 0.3 mm 4 m/s 648 mmHg 87%
    19:00 +18°C° 0.3 mm 4 m/s 649 mmHg 90%
    20:00 +17°C° 0.3 mm 3 m/s 649 mmHg 94%
    21:00 +17°C° 0.2 mm 3 m/s 649 mmHg 94%
    22:00 +16°C° 0.2 mm 3 m/s 650 mmHg 95%
    23:00 +16°C° 0.2 mm 3 m/s 650 mmHg 95%

    Poimâine, 25 Februarie, Luni

    Timp Temperatura Precipitaţii Vânt Presiune Umiditate
    00:00 +16°C° 0.2 mm 3 m/s 650 mmHg 95%
    01:00 +16°C° 0.2 mm 3 m/s 649 mmHg 95%
    02:00 +16°C° 0.2 mm 3 m/s 649 mmHg 95%
    03:00 +16°C° 0.4 mm 3 m/s 649 mmHg 95%
    04:00 +16°C° 0.4 mm 3 m/s 649 mmHg 95%
    05:00 +16°C° 0.4 mm 3 m/s 649 mmHg 94%
    06:00 +16°C° 0.3 mm 3 m/s 649 mmHg 94%
    07:00 +16°C° 0.3 mm 3 m/s 650 mmHg 93%
    08:00 +16°C° 0.3 mm 3 m/s 650 mmHg 93%
    09:00 +17°C° 0.1 mm 3 m/s 651 mmHg 89%
    10:00 +18°C° 0.1 mm 3 m/s 651 mmHg 85%
    11:00 +19°C° 0.1 mm 3 m/s 652 mmHg 81%
    12:00 +19°C° 0.2 mm 3 m/s 651 mmHg 82%
    13:00 +19°C° 0.2 mm 3 m/s 651 mmHg 83%
    14:00 +19°C° 0.2 mm 3 m/s 650 mmHg 84%
    15:00 +18°C° 0.3 mm 3 m/s 649 mmHg 86%
    16:00 +18°C° 0.3 mm 3 m/s 649 mmHg 87%
    17:00 +18°C° 0.3 mm 3 m/s 649 mmHg 89%
    18:00 +17°C° 0.5 mm 3 m/s 649 mmHg 91%
    19:00 +17°C° 0.5 mm 3 m/s 649 mmHg 92%
    20:00 +17°C° 0.5 mm 3 m/s 649 mmHg 94%
    21:00 +17°C° 0.6 mm 3 m/s 650 mmHg 95%
    22:00 +16°C° 0.6 mm 3 m/s 650 mmHg 95%
    23:00 +16°C° 0.6 mm 3 m/s 651 mmHg 95%

    26 Februarie, Marţi

    Timp Temperatura Precipitaţii Vânt Presiune Umiditate
    00:00 +16°C° 0.9 mm 3 m/s 650 mmHg 95%
    01:00 +16°C° 0.9 mm 3 m/s 650 mmHg 95%
    02:00 +16°C° 0.9 mm 3 m/s 650 mmHg 95%
    03:00 +16°C° 0.2 mm 3 m/s 649 mmHg 95%
    04:00 +16°C° 0.2 mm 3 m/s 649 mmHg 95%
    05:00 +16°C° 0.2 mm 3 m/s 649 mmHg 95%
    06:00 +16°C° 0.1 mm 3 m/s 650 mmHg 94%
    07:00 +16°C° 0.1 mm 3 m/s 650 mmHg 92%
    08:00 +17°C° 0.1 mm 3 m/s 651 mmHg 91%
    09:00 +17°C° 0.1 mm 3 m/s 651 mmHg 89%
    10:00 +18°C° 0.1 mm 3 m/s 652 mmHg 86%
    11:00 +18°C° 0.1 mm 3 m/s 652 mmHg 83%
    12:00 +19°C° 0.1 mm 3 m/s 651 mmHg 81%
    13:00 +20°C° 0.1 mm 3 m/s 651 mmHg 79%
    14:00 +20°C° 0.1 mm 3 m/s 650 mmHg 77%
    15:00 +21°C° 0.1 mm 3 m/s 650 mmHg 75%
    16:00 +21°C° 0.1 mm 3 m/s 649 mmHg 73%
    17:00 +21°C° 0.1 mm 3 m/s 649 mmHg 71%
    18:00 +20°C° 0.1 mm 3 m/s 649 mmHg 79%
    19:00 +18°C° 0.1 mm 3 m/s 649 mmHg 86%
    20:00 +17°C° 0.1 mm 3 m/s 650 mmHg 93%
    21:00 +17°C° 0.2 mm 3 m/s 650 mmHg 94%
    22:00 +17°C° 0.2 mm 3 m/s 650 mmHg 94%
    23:00 +16°C° 0.2 mm 3 m/s 651 mmHg 94%

    27 Februarie, Miercuri

    Timp Temperatura Precipitaţii Vânt Presiune Umiditate
    00:00 +16°C° 0.2 mm 3 m/s 650 mmHg 95%
    01:00 +16°C° 0.2 mm 3 m/s 650 mmHg 95%
    02:00 +16°C° 0.2 mm 3 m/s 649 mmHg 95%
    03:00 +16°C° 0.1 mm 3 m/s 649 mmHg 96%
    04:00 +16°C° 0.1 mm 3 m/s 649 mmHg 96%
    05:00 +16°C° 0.1 mm 3 m/s 649 mmHg 96%
    06:00 +16°C° 0.1 mm 3 m/s 650 mmHg 94%
    07:00 +17°C° 0.1 mm 3 m/s 650 mmHg 92%
    08:00 +17°C° 0.1 mm 3 m/s 651 mmHg 90%
    09:00 +18°C° 0 mm 3 m/s 651 mmHg 84%
    10:00 +20°C° 0 mm 3 m/s 652 mmHg 77%
    11:00 +21°C° 0 mm 3 m/s 652 mmHg 70%
    12:00 +22°C° 0.3 mm 4 m/s 652 mmHg 69%
    13:00 +22°C° 0.3 mm 4 m/s 651 mmHg 68%
    14:00 +23°C° 0.3 mm 4 m/s 650 mmHg 67%
    15:00 +22°C° 0.6 mm 4 m/s 650 mmHg 71%
    16:00 +21°C° 0.6 mm 4 m/s 649 mmHg 75%
    17:00 +20°C° 0.6 mm 4 m/s 649 mmHg 79%
    18:00 +19°C° 0.1 mm 4 m/s 649 mmHg 84%
    19:00 +18°C° 0.1 mm 4 m/s 649 mmHg 88%
    20:00 +17°C° 0.1 mm 3 m/s 649 mmHg 93%
    21:00 +17°C° 0.1 mm 3 m/s 650 mmHg 94%
    22:00 +17°C° 0.1 mm 3 m/s 650 mmHg 94%
    23:00 +17°C° 0.1 mm 3 m/s 650 mmHg 95%

    28 Februarie, Joi

    Timp Temperatura Precipitaţii Vânt Presiune Umiditate
    00:00 +17°C° 0.1 mm 3 m/s 650 mmHg 95%
    01:00 +17°C° 0.1 mm 2 m/s 649 mmHg 95%
    02:00 +16°C° 0.1 mm 2 m/s 649 mmHg 95%
    03:00 +16°C° 0 mm 2 m/s 649 mmHg 96%
    04:00 +16°C° 0 mm 2 m/s 649 mmHg 96%
    05:00 +16°C° 0 mm 2 m/s 649 mmHg 96%
    06:00 +16°C° 0 mm 2 m/s 649 mmHg 93%
    07:00 +17°C° 0 mm 2 m/s 650 mmHg 91%
    08:00 +17°C° 0 mm 2 m/s 651 mmHg 88%
    09:00 +19°C° 0 mm 2 m/s 651 mmHg 79%
    10:00 +21°C° 0 mm 3 m/s 652 mmHg 71%
    11:00 +22°C° 0 mm 3 m/s 652 mmHg 62%
    12:00 +24°C° 0 mm 3 m/s 652 mmHg 59%
    13:00 +25°C° 0 mm 4 m/s 651 mmHg 56%
    14:00 +25°C° 0 mm 4 m/s 651 mmHg 53%
    15:00 +25°C° 0 mm 4 m/s 650 mmHg 55%
    16:00 +23°C° 0 mm 4 m/s 650 mmHg 58%
    17:00 +22°C° 0 mm 4 m/s 649 mmHg 60%
    18:00 +20°C° 0 mm 4 m/s 649 mmHg 70%
    19:00 +18°C° 0 mm 4 m/s 649 mmHg 80%
    20:00 +17°C° 0 mm 3 m/s 649 mmHg 90%
    21:00 +16°C° 0.1 mm 3 m/s 649 mmHg 92%
    22:00 +16°C° 0.1 mm 3 m/s 649 mmHg 93%
    23:00 +16°C° 0.1 mm 3 m/s 650 mmHg 94%
    Arată mai mult